Tracking 19242 objects as of 20-Sep-2018
HD Live streaming from Space Station
objects crossing your sky now

FENGYUN 1C DEB

Track FENGYUN 1C DEB now!
10-day predictions


NORAD ID: 31165
Int'l Code: 1999-025BHT
Perigee: 670.5 km
Apogee: 814.2 km
Inclination: 98.9 °
Period: 99.5 minutes
Semi major axis: 7113 km
RCS: 0.0131 m2 (small)
Launch date: May 10, 1999
Source: People's Republic of China (PRC)
Launch site: Taiyaun Space Center, China (TSC)

Note: This is SATELLITE DEBRIS
aabbcc
Your satellite tracking list
Your tracking list is empty




NASA's NSSDC Master Catalog

Two Line Element Set (TLE):
1 31165U 99025BHT 18261.86826685 +.00000402 +00000-0 +11780-3 0  9994
2 31165 098.9141 125.4672 0100969 305.5106 117.3123 14.47070640603899
Source of the keplerian elements: AFSPC